Terminal Aerodrome Forecast
Issued by NWS

Home | Current Version | Previous Version | Text Only | Print | Product List | Glossary On
Versions: 1 2 3 4 5 6 7 8 9 10 11 12 13 14 15 16
000
FTAK31 PAFA 171901 AAA
TAFASC
TAF AMD
PASC 171901Z 1719/1818 06019KT 1SM BR VCSH OVC004
     FM180200 09010KT 5SM BR VCSH OVC007
     FM181300 18007KT 6SM BR VCSH OVC015=

USA.gov is the U.S. government's official web portal to all federal, state and local government web resources and services.